Weather in Sobolevo

Russia / Kamchatka Krai     54°17′55″N   155°56′45″E
temp.,
°C
wind,
m/s
gust,
m/s
humid.,
%
clouds,
%
prec.,
mm/h
press.,
hPa
HPBL,
m
28 june, tue
tue2800:00+10nw228450 0.0 100748
03:00+9nw11880 0.0 100611
06:00+10w11860 0.0 100711
09:00+16ssw11700 0.0 1007328
12:00+19wsw326411 0.0 1007727
15:00+19w54642 0.0 1007509
18:00+17nw44670 0.0 1007303
21:00+14wnw337863 0.0 100779
29 june, wed
wed2900:00+14nw127799 0.0 100743
03:00+12wsw228718 0.0 100712
06:00+11s33892 0.0 100743
09:00+16ssw33741 0.0 1007325
12:00+19ssw33657 0.0 1007690
15:00+19wsw43664 0.0 1007618
18:00+18w326955 0.0 1006364
21:00+14wsw228193 0.0 100678
30 june, thu
thu3000:00+12s228421 0.0 100717
03:00+11sw22910 0.0 100714
06:00+10sw22910 0.0 100833
09:00+15wnw11740 0.0 1008336
12:00+21nnw45550 0.0 1007969
15:00+23nnw78493 0.0 10071311
18:00+19nnw1011626 0.0 1008703
21:00+15nnw811765 0.0 1009363
1 july, fri
fri100:00+11nnw61183100 0.0 1010190
03:00+10nnw5983100 0.0 1010179
06:00+10nnw4788100 0.0 1010150
09:00+14nw3472100 0.0 1010397
12:00+13w447399 0.0 1009285
15:00+13w4571100 0.0 1008319
18:00+12wsw3475100 0.0 1007382
21:00+11ssw4484100 0.1 1006265
2 july, sat
sat200:00+10s6988100 0.1 1004331
03:00+9s81290100 0.0 1002368
06:00+9s101597100 4.4 999556
09:00+9s111497100 5.2 998659
12:00+10s101197100 5.8 996620
15:00+10ssw81097100 0.8 995620
18:00+9sw4597100 1.0 995478
21:00+9nw3396100 0.1 997335